TimeEDT,TemperatureF,Dew PointF,Humidity,Sea Level PressureIn,VisibilityMPH,Wind Direction,Wind SpeedMPH,Gust SpeedMPH,PrecipitationIn,Events,Conditions,WindDirDegrees,DateUTC
12:53 AM,27.0,21.0,78,30.30,10.0,Calm,Calm,-,N/A,,Clear,0,2013-03-10 05:53:00
1:53 AM,27.0,21.9,81,30.28,10.0,ENE,5.8,-,N/A,,Clear,70,2013-03-10 06:53:00
3:53 AM,24.1,19.9,84,30.28,10.0,Calm,Calm,-,N/A,,Clear,0,2013-03-10 07:53:00
4:53 AM,21.9,19.0,89,30.27,10.0,Calm,Calm,-,N/A,,Clear,0,2013-03-10 08:53:00
5:53 AM,24.1,21.0,88,30.27,10.0,Calm,Calm,-,N/A,,Clear,0,2013-03-10 09:53:00
6:53 AM,26.1,21.9,84,30.26,10.0,Calm,Calm,-,N/A,,Clear,0,2013-03-10 10:53:00
8:53 AM,30.9,25.0,79,30.23,10.0,East,3.5,-,N/A,,Clear,80,2013-03-10 12:53:00
9:53 AM,34.0,25.0,70,30.21,10.0,ENE,8.1,-,N/A,,Clear,70,2013-03-10 13:53:00
10:53 AM,36.0,27.0,70,30.20,10.0,NE,4.6,-,N/A,,Clear,50,2013-03-10 14:53:00
11:53 AM,39.0,28.0,65,30.18,10.0,NE,4.6,-,N/A,,Overcast,40,2013-03-10 15:53:00
12:53 PM,39.0,28.0,65,30.16,10.0,NNE,9.2,-,N/A,,Overcast,30,2013-03-10 16:53:00
1:53 PM,41.0,28.0,60,30.12,10.0,NNE,10.4,-,N/A,,Partly Cloudy,30,2013-03-10 17:53:00
2:53 PM,42.1,28.0,58,30.11,10.0,NE,8.1,-,N/A,,Partly Cloudy,50,2013-03-10 18:53:00
3:53 PM,44.1,28.0,53,30.08,10.0,East,8.1,-,N/A,,Mostly Cloudy,90,2013-03-10 19:53:00
4:53 PM,41.0,28.0,60,30.06,10.0,NNE,6.9,-,N/A,,Scattered Clouds,30,2013-03-10 20:53:00
5:53 PM,42.1,28.9,60,30.04,10.0,NE,3.5,-,N/A,,Clear,50,2013-03-10 21:53:00
6:53 PM,41.0,28.0,60,30.06,10.0,NE,3.5,-,N/A,,Clear,50,2013-03-10 22:53:00
7:53 PM,39.0,28.9,67,30.05,10.0,Calm,Calm,-,N/A,,Clear,0,2013-03-10 23:53:00
8:53 PM,37.0,28.9,73,30.06,10.0,Calm,Calm,-,N/A,,Clear,0,2013-03-11 00:53:00
9:53 PM,36.0,30.0,79,30.06,10.0,Calm,Calm,-,N/A,,Partly Cloudy,0,2013-03-11 01:53:00
10:53 PM,36.0,30.0,79,30.06,10.0,SE,3.5,-,N/A,,Overcast,130,2013-03-11 02:53:00
11:53 PM,36.0,30.0,79,30.07,10.0,Calm,Calm,-,N/A,,Overcast,0,2013-03-11 03:53:00
12:53 AM,36.0,30.0,79,30.04,10.0,Calm,Calm,-,N/A,,Overcast,0,2013-03-11 04:53:00